Location: Unspecified
(0.0000°N, 0.0000°E)
Time: 05:27:14
(UTC+01:00)

HO-68 - Visible Passes

Search period start: 05 December 2016 00:00
Search period end: 15 December 2016 00:00
Orbit: 1193 x 1204 km, 100.1° (Epoch: 04 December)

Date Brightness Start Highest point End Pass type
(mag) Time Alt. Az. Time Alt. Az. Time Alt. Az.
05 Dec ? 20:48:41 10° S 20:55:45 64° WSW 21:02:47 10° NNW visible
06 Dec ? 20:31:42 10° SSE 20:38:53 89° WSW 20:46:03 10° NNW visible
07 Dec ? 20:14:56 10° SSE 20:22:01 66° ENE 20:29:05 10° N visible
07 Dec ? 22:06:50 10° SW 22:09:21 12° WSW 22:11:51 10° W visible
08 Dec ? 19:58:22 10° SSE 20:05:10 47° ENE 20:11:55 10° N visible
08 Dec ? 21:47:52 10° SSW 21:52:31 19° WSW 21:57:12 10° WNW visible
09 Dec ? 19:42:04 10° SE 19:48:18 33° ENE 19:54:30 10° NNE visible
09 Dec ? 21:29:53 10° SSW 21:35:41 27° WSW 21:41:30 10° NW visible
10 Dec ? 19:26:07 10° SE 19:31:27 23° ENE 19:36:45 10° NNE visible
10 Dec ? 21:12:19 10° S 21:18:50 39° WSW 21:25:22 10° NW visible
11 Dec ? 19:10:47 10° ESE 19:14:37 15° ENE 19:18:26 10° NE visible
11 Dec ? 20:55:02 10° S 21:01:59 55° WSW 21:08:56 10° NNW visible
12 Dec ? 20:37:58 10° S 20:45:07 78° WSW 20:52:16 10° NNW visible
13 Dec ? 20:21:06 10° SSE 20:28:15 76° ENE 20:35:23 10° N visible
14 Dec ? 20:04:27 10° SSE 20:11:23 54° ENE 20:18:18 10° N visible
14 Dec ? 21:54:46 10° SW 21:58:44 16° WSW 22:02:44 10° WNW visible
